Torna al catalogo

ONEWEB-0358

AttivoComunicazioniPO
NORAD 49284·PAYLOAD·🇬🇧 United Kingdom

Lanciato Oct 14, 2021 da Vostochny Cosmodrome

Loading…

Prossimi Passaggi (prossime 24 ore)

TLE

AggiornatoSource: CelesTrak SupGP

Epoca: Sep 14, 2026, 16:07 UTC

1 49284C 21090F   26257.67202961 -.00002731  00000+0 -67254-2 0  2571
2 49284  87.9142 256.5925 0002035  93.7366 345.0158 13.20773342    17

Traccia ONEWEB-0358 in tempo reale con AllMySat

Download on the App Store